Change the Weather History Date:

Thursday, November 20, 2014

  Actual Average Record
Temperature  
Mean Temperature 61 °F 60 °F  
Max Temperature 68 °F 68 °F 90 °F (1954)
Min Temperature 53 °F 52 °F 40 °F (1964)
Degree Days  
Heating Degree Days 4 5  
Month to date heating degree days 32 76  
Since 1 July heating degree days 32 120  
Cooling Degree Days 0 0  
Month to date cooling degree days 28 18  
Year to date cooling degree days 1156 549  
Growing Degree Days 10 (Base 50)    
Moisture  
Dew Point 52 °F    
Average Humidity 72    
Maximum Humidity 86    
Minimum Humidity 58    
Precipitation  
Precipitation T in 0.04 in 0.98 in (2011)
Month to date precipitation 0.20 0.66  
Year to date precipitation 4.04 10.32  
Since 1 July precipitation 0.63 1.51  
Sea Level Pressure  
Sea Level Pressure 30.05 in    
Wind  
Wind Speed 7 mph (WNW)    
Max Wind Speed 18 mph    
Max Gust Speed 22 mph    
Visibility 10 miles    
Events      
T = Trace of Precipitation, MM = Missing Value Source: NWS Daily Summary

Daily Weather History Graph

Daily Weather History Graph

Search for Another Location

Airport or City:

Trip Planner

Search our weather history database for the weather conditions in past years. The results will help you decide how hot, cold, wet, or windy it might be!

Date:

Astronomy

Nov. 20, 2014 Rise Set
Actual Time 6:30 AM PST 4:47 PM PST
Civil Twilight 6:03 AM PST 5:14 PM PST
Nautical Twilight 5:33 AM PST 5:44 PM PST
Astronomical Twilight 5:03 AM PST 6:14 PM PST
Moon 4:36 AM PST (11/20) 3:49 PM PST (11/20)
Length of Visible Light 11h 10m
Length of Day
10h 16m
Waning Crescent, 3% of the Moon is Illuminated
Nov 20
Waning Crescent
Nov 22
New
Nov 29
First Quarter
Dec 6
Full
Dec 14
Last Quarter

Hourly Weather History & Observations

Time (PST) Temp. Dew Point Humidity Pressure Visibility Wind Dir Wind Speed Gust Speed Precip Events Conditions
12:53 AM 57.9 °F 53.1 °F 84% 30.09 in 10.0 mi NE 6.9 mph - N/A   Partly Cloudy
1:53 AM 55.9 °F 51.1 °F 84% 30.09 in 10.0 mi East 4.6 mph - N/A   Partly Cloudy
2:53 AM 55.9 °F 50.0 °F 80% 30.08 in 8.0 mi East 3.5 mph - N/A   Partly Cloudy
3:53 AM 55.0 °F 46.9 °F 74% 30.08 in 10.0 mi ENE 4.6 mph - N/A   Partly Cloudy
4:53 AM 54.0 °F 44.1 °F 69% 30.08 in 10.0 mi East 4.6 mph - N/A   Scattered Clouds
5:53 AM 54.0 °F 46.0 °F 75% 30.09 in 10.0 mi NE 5.8 mph - N/A   Scattered Clouds
6:53 AM 55.9 °F 45.0 °F 67% 30.10 in 10.0 mi NE 5.8 mph - N/A   Scattered Clouds
7:53 AM 59.0 °F 46.0 °F 62% 30.11 in 10.0 mi NE 5.8 mph - N/A   Scattered Clouds
8:53 AM 61.0 °F 48.9 °F 64% 30.12 in 10.0 mi East 4.6 mph - N/A   Scattered Clouds
9:53 AM 64.9 °F 52.0 °F 63% 30.11 in 10.0 mi Calm Calm - N/A   Scattered Clouds
10:53 AM 66.0 °F 52.0 °F 60% 30.09 in 10.0 mi SW 3.5 mph - N/A   Mostly Cloudy
11:53 AM 66.0 °F 53.1 °F 63% 30.06 in 10.0 mi WSW 4.6 mph - N/A   Mostly Cloudy
12:53 PM 66.0 °F 54.0 °F 65% 30.05 in 10.0 mi West 11.5 mph - N/A   Mostly Cloudy
1:53 PM 66.0 °F 54.0 °F 65% 30.03 in 10.0 mi West 10.4 mph - N/A   Mostly Cloudy
2:53 PM 64.0 °F 57.0 °F 78% 30.03 in 10.0 mi West 15.0 mph - N/A   Mostly Cloudy
3:53 PM 63.0 °F 57.0 °F 81% 30.01 in 10.0 mi West 12.7 mph - N/A   Overcast
4:53 PM 63.0 °F 57.0 °F 81% 30.00 in 10.0 mi West 10.4 mph - N/A   Mostly Cloudy
5:53 PM 63.0 °F 57.0 °F 81% 30.00 in 10.0 mi WSW 9.2 mph - N/A   Overcast
6:53 PM 63.0 °F 55.9 °F 78% 30.00 in 10.0 mi West 13.8 mph - N/A   Overcast
7:53 PM 63.0 °F 55.9 °F 78% 30.00 in 10.0 mi West 15.0 mph - N/A   Overcast
8:53 PM 63.0 °F 55.0 °F 75% 29.99 in 10.0 mi West 8.1 mph - N/A   Mostly Cloudy
9:53 PM 63.0 °F 54.0 °F 72% 30.00 in 10.0 mi NW 4.6 mph - N/A   Overcast
10:53 PM 62.1 °F 55.0 °F 78% 29.97 in 10.0 mi Calm Calm - 0.00 in   Scattered Clouds
11:53 PM 61.0 °F 55.0 °F 81% 29.99 in 10.0 mi West 10.4 mph - N/A   Scattered Clouds